Regional Weather Roundup
Issued by NWS

Home | Current Version | Previous Version | Text Only | Print | Product List | Glossary Off
Versions: 1 2 3 4 5 6 7 8 9 10 11 12 13 14 15 16 17 18 19 20 21 22 23 24 25 26 27 28 29 30 31 32 33 34 35 36 37 38 39 40 41 42 43 44 45 46 47 48 49 50

000
ASUS43 KIND 270409
RWRIN

WEATHER ROUNDUP FOR INDIANA
NATIONAL WEATHER SERVICE INDIANAPOLIS IN
1100 PM EST WED NOV 26 2014

NOTE: "FAIR" INDICATES FEW OR NO CLOUDS BELOW 12,000 FEET WITH NO
SIGNIFICANT WEATHER AND/OR OBSTRUCTIONS TO VISIBILITY.

* - STATION DOES NOT REPORT WEATHER SUCH AS PRECIPITATION OR FOG.

+ - STATION NOT QUALITY CONTROLLED BY THE NATIONAL WEATHER SERVICE.
    USE DATA WITH CAUTION...ESPECIALLY DEWPOINT AND RELATIVE
    HUMIDITY OBSERVATIONS.

INZ001>003-010>013-019-020-270500-
NORTHWEST INDIANA

CITY           SKY/WX    TMP DP  RH WIND       PRES   REMARKS
GARY /AIRPORT/ CLOUDY    30  22  71 W5        30.16S WCI  25
KNOX *+        MOCLDY    24  20  84 N5        30.14R WCI  19
LA PORTE +     CLOUDY    26  23  90 CALM      30.15R
MICHIGAN CITY+ CLOUDY    27  21  80 CALM      30.16S
MONTICELLO +   CLOUDY    27  21  77 N8        30.13S WCI  19
RENSSELAER +   MOCLDY    28  25  86 CALM      30.15R
VALPARAISO     MOCLDY    24  18  77 CALM      30.15R

$$

LMZ046-743>745-270500-
SOUTHERN LAKE MICHIGAN

STATION/POSITION TIME  TEMP WIND        PRES
                       AIR  DIR/SP/G
                 (UTC) (F)  (DEG/KT/KT) (MB)
MICHIGAN CITY    0400   27  120/  2/  3   N/A

$$

INZ004-005-014>016-021>024-270500-
NORTH CENTRAL INDIANA

CITY           SKY/WX    TMP DP  RH WIND       PRES   REMARKS
GOSHEN         CLOUDY    28  21  75 NW6       30.12R WCI  22
LOGANSPORT +   CLOUDY    28  21  74 N5        30.13S WCI  23
PERU/GRISSOM   CLOUDY    28  24  84 N7        30.11S WCI  20
ROCHESTER +    CLOUDY    30  23  74 NE5       30.13S WCI  25
SOUTH BEND     MOCLDY    25  20  81 NW6       30.14R WCI  18
WARSAW +       CLOUDY    28  21  74 N5        30.12S WCI  23

$$

INZ006>009-017-018-025>027-270500-
NORTHEAST INDIANA

CITY           SKY/WX    TMP DP  RH WIND       PRES   REMARKS
ANGOLA *+      CLOUDY    27  18  69 N5        30.09S WCI  21
AUBURN +       CLOUDY    30  23  74 NW6       30.11R WCI  24
FORT WAYNE     CLOUDY    29  21  72 N7        30.11R WCI  22
HUNTINGTON +   CLOUDY    28  22  81 N3        30.11S

$$

INZ028-029-035-036-043>045-051>053-270500-
WEST CENTRAL INDIANA

CITY           SKY/WX    TMP DP  RH WIND       PRES   REMARKS
GREENCASTLE +  CLOUDY    28  25  86 N8        30.09R WCI  20
LAFAYETTE      CLOUDY    27  21  78 N7        30.14R WCI  19
TERRE HAUTE    CLOUDY    31  25  78 N7        30.10R WCI  24

$$

INZ030>032-037>040-046>048-054>057-064-065-270500-
CENTRAL INDIANA

CITY           SKY/WX    TMP DP  RH WIND       PRES   REMARKS
CP ATTERBURY + CLOUDY    30  27  86 NE7       30.08S WCI  23
FRANKFORT +    CLOUDY    28  23  84 N7        30.12R WCI  20
GREENWOOD *+   CLOUDY    28  21  74 NE6       30.08  WCI  22
INDIANAPOLIS   CLOUDY    27  21  78 NE9       30.08R WCI  18
-EAGLE CREEK   MOCLDY    27  21  78 NE5       30.08S WCI  22
KOKOMO *+      CLOUDY    28  19  69 N7        30.11S WCI  21
MARION +         N/A     28  20  74 N6        30.11S WCI  21
MT COMFORT *+  MOCLDY    27  19  74 NE6       30.09S WCI  20
SHELBYVILLE    CLOUDY    30  23  75 NE6       30.08R WCI  24
ZIONSVILLE +   MOCLDY    27  22  80 NE7       30.10R WCI  20

$$

INZ033-034-041-042-049-050-058-059-270500-
EAST CENTRAL INDIANA

CITY           SKY/WX    TMP DP  RH WIND       PRES   REMARKS
MUNCIE         CLOUDY    28  21  75 N7        30.09R WCI  21

$$

INZ060-061-067>069-081>083-085>088-270500-
SOUTHWEST INDIANA

CITY           SKY/WX    TMP DP  RH WIND       PRES   REMARKS
EVANSVILLE     LGT SNOW  34  31  88 NW3       30.07R FOG
HUNTINGBURG *+ CLOUDY    36  28  75 N8        30.06R
WASHINGTON +   CLOUDY    34  30  86 NW8       30.07R WCI  27

$$

INZ062-063-066-070>080-084-089>092-270500-
SOUTH CENTRAL AND SOUTHEAST INDIANA

CITY           SKY/WX    TMP DP  RH WIND       PRES   REMARKS
BLOOMINGTON    FLURRIES  32  26  78 NE6       30.06S WCI  26
NORTH VERNON + CLOUDY    32  28  86 NE6       30.07  WCI  26
SEYMOUR +      CLOUDY    34  27  75 NE6       30.07  WCI  29

$$




USA.gov is the U.S. government's official web portal to all federal, state and local government web resources and services.